JBU1017 KBOS-KJFK

Flight info

Callsign JBU1017
Flight time 0h 45m
Altitude 22000
Route SSOXS7 SSOXS BUZRD SEY PARCH4
Aircraft A321/M-VGDW/C

Departure

Time 2026-05-04 23:03
Airport Boston Logan International Airport (KBOS)

Arrival

Time 2026-05-04 23:48
Airport John F. Kennedy International Airport (KJFK)
Time Latitude Longitude Altitude Speed Heading
2026-05-04 22:35 42.36546 -71.01408 16 ft 0 kts 328°
2026-05-04 22:41 42.36545 -71.01408 26 ft 0 kts 328°
2026-05-04 22:42 42.36545 -71.01407 26 ft 0 kts 328°
2026-05-04 22:52 42.36544 -71.01407 26 ft 0 kts 328°
2026-05-04 22:53 42.36544 -71.01406 26 ft 0 kts 328°
2026-05-04 22:54 42.36542 -71.01405 26 ft 2 kts 328°
2026-05-04 22:54 42.36529 -71.01393 30 ft 2 kts 328°
2026-05-04 22:54 42.36503 -71.01373 28 ft 4 kts 333°
2026-05-04 22:54 42.36475 -71.01362 28 ft 4 kts 22°
2026-05-04 22:55 42.36470 -71.01365 29 ft 0 kts 24°
2026-05-04 22:57 42.36476 -71.01361 29 ft 2 kts 24°
2026-05-04 22:57 42.36511 -71.01340 30 ft 9 kts 24°
2026-05-04 22:57 42.36571 -71.01299 28 ft 9 kts 40°
2026-05-04 22:57 42.36582 -71.01229 28 ft 8 kts 64°
2026-05-04 22:58 42.36640 -71.01187 28 ft 10 kts 21°
2026-05-04 22:58 42.36732 -71.01144 27 ft 17 kts 18°
2026-05-04 22:58 42.36829 -71.01202 26 ft 16 kts 317°
2026-05-04 22:58 42.36918 -71.01187 30 ft 15 kts 41°
2026-05-04 22:59 42.37011 -71.01097 29 ft 17 kts 27°
2026-05-04 22:59 42.37123 -71.01023 28 ft 19 kts 26°
2026-05-04 22:59 42.37213 -71.00964 27 ft 7 kts 26°
2026-05-04 22:59 42.37267 -71.00928 27 ft 14 kts 26°
2026-05-04 23:00 42.37381 -71.00868 27 ft 19 kts 19°
2026-05-04 23:00 42.37507 -71.00808 29 ft 20 kts 19°
2026-05-04 23:00 42.37641 -71.00744 27 ft 21 kts 19°
2026-05-04 23:00 42.37766 -71.00683 27 ft 18 kts 20°
2026-05-04 23:01 42.37835 -71.00622 28 ft 11 kts 66°
2026-05-04 23:01 42.37821 -71.00519 26 ft 11 kts 107°
2026-05-04 23:01 42.37785 -71.00477 28 ft 7 kts 183°
2026-05-04 23:01 42.37774 -71.00483 28 ft 0 kts 199°
2026-05-04 23:02 42.37773 -71.00483 28 ft 0 kts 199°
2026-05-04 23:02 42.37741 -71.00498 27 ft 24 kts 199°
2026-05-04 23:03 42.37338 -71.00690 28 ft 96 kts 199°
2026-05-04 23:03 42.36523 -71.01087 87 ft 145 kts 200°
2026-05-04 23:03 42.35554 -71.01567 722 ft 149 kts 205°
2026-05-04 23:03 42.34489 -71.01826 1324 ft 170 kts 179°
2026-05-04 23:04 42.33359 -71.01090 1831 ft 196 kts 140°
2026-05-04 23:04 42.32405 -70.99645 2313 ft 217 kts 129°
2026-05-04 23:04 42.31558 -70.97857 2802 ft 236 kts 111°
2026-05-04 23:04 42.31219 -70.95648 3373 ft 247 kts 89°
2026-05-04 23:05 42.31403 -70.93251 3800 ft 265 kts 73°
2026-05-04 23:05 42.31824 -70.90755 4429 ft 279 kts 74°
2026-05-04 23:05 42.32225 -70.88162 5249 ft 284 kts 75°
2026-05-04 23:05 42.32608 -70.85537 6152 ft 286 kts 75°
2026-05-04 23:06 42.32966 -70.82872 6993 ft 291 kts 79°
2026-05-04 23:06 42.32956 -70.80103 7795 ft 300 kts 95°
2026-05-04 23:06 42.32417 -70.77358 8620 ft 306 kts 112°
2026-05-04 23:06 42.31512 -70.74735 9457 ft 310 kts 114°
2026-05-04 23:07 42.30565 -70.72101 10245 ft 314 kts 120°
2026-05-04 23:07 42.29260 -70.69708 10867 ft 324 kts 134°
2026-05-04 23:07 42.27464 -70.67740 11080 ft 343 kts 152°
2026-05-04 23:07 42.25215 -70.66441 11260 ft 362 kts 165°
2026-05-04 23:08 42.22759 -70.65359 11563 ft 379 kts 165°
2026-05-04 23:08 42.20233 -70.64231 12179 ft 385 kts 165°
2026-05-04 23:08 42.17669 -70.63109 12867 ft 389 kts 168°
2026-05-04 23:08 42.15009 -70.62468 13549 ft 388 kts 180°
2026-05-04 23:09 42.12318 -70.62500 14163 ft 387 kts 191°
2026-05-04 23:09 42.09688 -70.63194 14796 ft 384 kts 202°
2026-05-04 23:09 42.07145 -70.64314 15440 ft 386 kts 204°
2026-05-04 23:09 42.04576 -70.65458 16101 ft 390 kts 204°
2026-05-04 23:10 42.01991 -70.66605 16740 ft 394 kts 204°
2026-05-04 23:10 41.99373 -70.67761 17410 ft 397 kts 204°
2026-05-04 23:10 41.96733 -70.68923 18061 ft 401 kts 204°
2026-05-04 23:10 41.94065 -70.70090 18657 ft 405 kts 204°
2026-05-04 23:11 41.91376 -70.71263 19224 ft 408 kts 204°
2026-05-04 23:11 41.88670 -70.72441 19790 ft 411 kts 204°
2026-05-04 23:11 41.85937 -70.73635 20352 ft 414 kts 204°
2026-05-04 23:11 41.83255 -70.75011 20888 ft 412 kts 211°
2026-05-04 23:12 41.80740 -70.76832 21408 ft 412 kts 216°
2026-05-04 23:12 41.78235 -70.78727 21810 ft 414 kts 215°
2026-05-04 23:12 41.75715 -70.80623 21920 ft 421 kts 215°
2026-05-04 23:12 41.73122 -70.82577 21929 ft 435 kts 215°
2026-05-04 23:13 41.70446 -70.84596 21929 ft 446 kts 215°
2026-05-04 23:13 41.67731 -70.86630 21939 ft 449 kts 214°
2026-05-04 23:13 41.65002 -70.88660 21929 ft 449 kts 214°
2026-05-04 23:13 41.62266 -70.90692 21942 ft 449 kts 214°
2026-05-04 23:14 41.59536 -70.92726 21937 ft 449 kts 214°
2026-05-04 23:14 41.56844 -70.94823 21930 ft 446 kts 219°
2026-05-04 23:14 41.54401 -70.97324 21934 ft 440 kts 227°
2026-05-04 23:14 41.52277 -71.00225 21933 ft 434 kts 235°
2026-05-04 23:15 41.50373 -71.03349 21934 ft 434 kts 236°
2026-05-04 23:15 41.48465 -71.06464 21934 ft 434 kts 236°
2026-05-04 23:15 41.46545 -71.09573 21931 ft 434 kts 236°
2026-05-04 23:15 41.44624 -71.12673 21913 ft 434 kts 236°
2026-05-04 23:16 41.42706 -71.15768 21902 ft 433 kts 236°
2026-05-04 23:16 41.40789 -71.18864 21898 ft 433 kts 236°
2026-05-04 23:16 41.38879 -71.21962 21900 ft 433 kts 236°
2026-05-04 23:16 41.36982 -71.25071 21898 ft 433 kts 239°
2026-05-04 23:17 41.35143 -71.28237 21880 ft 432 kts 240°
2026-05-04 23:17 41.33342 -71.31435 21915 ft 432 kts 241°
2026-05-04 23:17 41.31501 -71.34608 21910 ft 434 kts 239°
2026-05-04 23:17 41.29585 -71.37719 21925 ft 435 kts 238°
2026-05-04 23:18 41.27610 -71.40766 21967 ft 435 kts 237°
2026-05-04 23:18 41.25635 -71.43820 21946 ft 435 kts 237°
2026-05-04 23:18 41.23682 -71.46886 21904 ft 434 kts 238°
2026-05-04 23:18 41.21745 -71.49967 21928 ft 434 kts 238°
2026-05-04 23:19 41.19832 -71.53065 21961 ft 434 kts 239°
2026-05-04 23:19 41.18118 -71.56319 21963 ft 428 kts 246°
2026-05-04 23:19 41.16754 -71.59797 21953 ft 422 kts 255°
2026-05-04 23:19 41.15901 -71.63427 21937 ft 416 kts 264°
2026-05-04 23:20 41.15462 -71.67207 21908 ft 415 kts 268°
2026-05-04 23:20 41.15126 -71.71014 21945 ft 416 kts 269°
2026-05-04 23:20 41.14788 -71.74828 21967 ft 417 kts 268°
2026-05-04 23:20 41.14388 -71.78641 22003 ft 416 kts 267°
2026-05-04 23:21 41.13941 -71.82354 21956 ft 402 kts 266°
2026-05-04 23:21 41.13473 -71.85990 21950 ft 399 kts 266°
2026-05-04 23:21 41.12994 -71.89604 21984 ft 398 kts 266°
2026-05-04 23:21 41.12510 -71.93217 21998 ft 397 kts 266°
2026-05-04 23:22 41.12037 -71.96809 21869 ft 394 kts 266°
2026-05-04 23:22 41.11579 -72.00381 21680 ft 393 kts 266°
2026-05-04 23:22 41.11143 -72.03948 21368 ft 391 kts 267°
2026-05-04 23:22 41.10732 -72.07501 21069 ft 389 kts 268°
2026-05-04 23:23 41.10308 -72.11037 20650 ft 388 kts 265°
2026-05-04 23:23 41.09538 -72.14479 20212 ft 393 kts 255°
2026-05-04 23:23 41.08552 -72.17830 19888 ft 388 kts 257°
2026-05-04 23:23 41.07681 -72.21198 19456 ft 385 kts 258°
2026-05-04 23:24 41.06889 -72.24569 18985 ft 382 kts 259°
2026-05-04 23:24 41.06131 -72.27930 18518 ft 380 kts 259°
2026-05-04 23:24 41.05363 -72.31271 18051 ft 378 kts 259°
2026-05-04 23:24 41.04578 -72.34582 17570 ft 376 kts 258°
2026-05-04 23:25 41.03774 -72.37866 17111 ft 374 kts 258°
2026-05-04 23:25 41.02953 -72.41127 16663 ft 372 kts 257°
2026-05-04 23:25 41.02119 -72.44360 16158 ft 370 kts 257°
2026-05-04 23:25 41.01288 -72.47567 15665 ft 367 kts 257°
2026-05-04 23:26 41.00480 -72.50743 15071 ft 363 kts 258°
2026-05-04 23:26 40.99694 -72.53898 14496 ft 359 kts 258°
2026-05-04 23:26 40.98922 -72.57019 13881 ft 356 kts 258°
2026-05-04 23:26 40.98157 -72.60115 13316 ft 350 kts 258°
2026-05-04 23:27 40.97407 -72.63107 13069 ft 336 kts 258°
2026-05-04 23:27 40.96678 -72.65977 12829 ft 322 kts 258°
2026-05-04 23:27 40.95973 -72.68729 12597 ft 310 kts 258°
2026-05-04 23:27 40.95304 -72.71388 12378 ft 299 kts 259°
2026-05-04 23:28 40.94664 -72.73936 12227 ft 286 kts 259°
2026-05-04 23:28 40.94041 -72.76387 12020 ft 277 kts 259°
2026-05-04 23:28 40.93302 -72.78734 11620 ft 279 kts 248°
2026-05-04 23:28 40.92079 -72.80754 11208 ft 285 kts 233°
2026-05-04 23:29 40.90491 -72.82353 10781 ft 289 kts 223°
2026-05-04 23:29 40.88847 -72.83849 10423 ft 285 kts 226°
2026-05-04 23:29 40.87275 -72.85427 10034 ft 283 kts 228°
2026-05-04 23:29 40.85729 -72.87024 9599 ft 283 kts 227°
2026-05-04 23:30 40.84165 -72.88597 9176 ft 282 kts 226°
2026-05-04 23:30 40.82601 -72.90127 9025 ft 280 kts 226°
2026-05-04 23:30 40.81025 -72.91656 9057 ft 282 kts 226°
2026-05-04 23:30 40.79443 -72.93184 9084 ft 282 kts 225°
2026-05-04 23:31 40.77844 -72.94692 9083 ft 283 kts 225°
2026-05-04 23:31 40.76248 -72.96200 9072 ft 282 kts 225°
2026-05-04 23:31 40.74659 -72.97725 9020 ft 282 kts 225°
2026-05-04 23:31 40.73077 -72.99252 8997 ft 282 kts 226°
2026-05-04 23:32 40.71500 -73.00774 8994 ft 281 kts 225°
2026-05-04 23:32 40.70009 -73.02404 9023 ft 274 kts 237°
2026-05-04 23:32 40.68998 -73.04443 8944 ft 260 kts 256°
2026-05-04 23:32 40.68582 -73.06695 8570 ft 251 kts 274°
2026-05-04 23:33 40.68643 -73.08986 8088 ft 251 kts 280°
2026-05-04 23:33 40.68733 -73.11290 7599 ft 253 kts 278°
2026-05-04 23:33 40.68781 -73.13603 7229 ft 252 kts 277°
2026-05-04 23:33 40.68802 -73.15908 6836 ft 251 kts 276°
2026-05-04 23:34 40.68811 -73.18204 6458 ft 250 kts 276°
2026-05-04 23:34 40.68820 -73.20453 6084 ft 248 kts 276°
2026-05-04 23:34 40.68834 -73.22721 5695 ft 247 kts 276°
2026-05-04 23:34 40.68847 -73.25020 5207 ft 247 kts 275°
2026-05-04 23:35 40.68854 -73.27227 4734 ft 237 kts 275°
2026-05-04 23:35 40.68856 -73.28643 4421 ft 230 kts 275°
2026-05-04 23:35 40.68863 -73.30741 4082 ft 228 kts 276°
2026-05-04 23:35 40.68875 -73.32787 3943 ft 216 kts 276°
2026-05-04 23:36 40.68607 -73.35282 3996 ft 210 kts 254°
2026-05-04 23:36 40.67744 -73.36851 4047 ft 217 kts 230°
2026-05-04 23:36 40.66875 -73.37572 4102 ft 222 kts 213°
2026-05-04 23:36 40.65444 -73.38305 4212 ft 215 kts 218°
2026-05-04 23:37 40.64475 -73.39624 4123 ft 196 kts 254°
2026-05-04 23:37 40.63966 -73.41316 3981 ft 201 kts 258°
2026-05-04 23:37 40.63497 -73.43067 3954 ft 204 kts 259°
2026-05-04 23:37 40.63044 -73.44837 3956 ft 205 kts 258°
2026-05-04 23:38 40.62576 -73.46610 3972 ft 205 kts 258°
2026-05-04 23:38 40.62113 -73.48384 3983 ft 205 kts 258°
2026-05-04 23:38 40.61648 -73.50163 4013 ft 205 kts 259°
2026-05-04 23:38 40.61549 -73.51969 4056 ft 197 kts 291°
2026-05-04 23:39 40.62339 -73.53416 4008 ft 203 kts 329°
2026-05-04 23:39 40.63712 -73.53866 3939 ft 214 kts
2026-05-04 23:39 40.65157 -73.53235 3923 ft 226 kts 26°
2026-05-04 23:39 40.66578 -73.52339 3970 ft 232 kts 28°
2026-05-04 23:40 40.68026 -73.51365 4007 ft 234 kts 28°
2026-05-04 23:40 40.69481 -73.50390 4034 ft 235 kts 28°
2026-05-04 23:40 40.70939 -73.49420 4052 ft 235 kts 28°
2026-05-04 23:40 40.72367 -73.48463 3911 ft 225 kts 28°
2026-05-04 23:41 40.73767 -73.47542 3522 ft 225 kts 28°
2026-05-04 23:41 40.75171 -73.46646 3139 ft 224 kts 28°
2026-05-04 23:41 40.76621 -73.45948 2679 ft 220 kts
2026-05-04 23:41 40.78098 -73.46141 2277 ft 210 kts 340°
2026-05-04 23:42 40.79249 -73.47209 2057 ft 206 kts 310°
2026-05-04 23:42 40.80001 -73.48837 2147 ft 209 kts 300°
2026-05-04 23:42 40.80453 -73.50645 2092 ft 208 kts 277°
2026-05-04 23:42 40.80383 -73.52530 2046 ft 204 kts 270°
2026-05-04 23:43 40.80231 -73.54379 2034 ft 203 kts 268°
2026-05-04 23:43 40.80078 -73.56231 2004 ft 204 kts 268°
2026-05-04 23:43 40.79936 -73.58082 1996 ft 202 kts 269°
2026-05-04 23:43 40.79747 -73.59922 1958 ft 204 kts 260°
2026-05-04 23:44 40.79170 -73.61621 1962 ft 204 kts 244°
2026-05-04 23:44 40.78329 -73.63134 2047 ft 204 kts 239°
2026-05-04 23:44 40.77450 -73.64598 2068 ft 203 kts 239°
2026-05-04 23:44 40.76571 -73.65961 2017 ft 188 kts 232°
2026-05-04 23:45 40.75502 -73.66896 2013 ft 180 kts 221°
2026-05-04 23:45 40.74436 -73.67726 2142 ft 177 kts 224°
2026-05-04 23:45 40.73388 -73.68561 2080 ft 174 kts 223°
2026-05-04 23:45 40.72392 -73.69313 1919 ft 156 kts 226°
2026-05-04 23:46 40.71490 -73.70016 1715 ft 146 kts 228°
2026-05-04 23:46 40.70639 -73.70698 1447 ft 142 kts 228°
2026-05-04 23:46 40.69793 -73.71356 1243 ft 140 kts 227°
2026-05-04 23:46 40.68962 -73.72013 1058 ft 140 kts 227°
2026-05-04 23:47 40.68393 -73.72457 908 ft 140 kts 224°
2026-05-04 23:47 40.67548 -73.73115 739 ft 138 kts 223°
2026-05-04 23:47 40.66730 -73.73760 561 ft 139 kts 221°
2026-05-04 23:47 40.65904 -73.74407 388 ft 138 kts 220°
2026-05-04 23:48 40.65090 -73.75036 220 ft 135 kts 221°
2026-05-04 23:48 40.64296 -73.75664 48 ft 134 kts 219°
2026-05-04 23:48 40.63583 -73.76218 19 ft 102 kts 210°
2026-05-04 23:48 40.63322 -73.76458 19 ft 22 kts 233°
2026-05-04 23:49 40.63242 -73.76618 17 ft 13 kts 247°
2026-05-04 23:49 40.63250 -73.76746 16 ft 16 kts 297°
2026-05-04 23:49 40.63281 -73.76815 16 ft 0 kts 301°
2026-05-04 23:49 40.63283 -73.76820 16 ft 0 kts 301°